• In Belarus
  • List of Countries
  • For 7 days
  • Water Temperature
  • Satellite Maps
  • Weather Map
  • Weather Widgets
  • user-avatar
    Login

    Hourly Weather Versoix

    Today, 19 June, Tuesday

    Time Temperature Precipitation Wind Pressure Humidity
    00:00 +16°C° 0 mm 1 mps 730 mmHg 97%
    01:00 +16°C° 0 mm 1 mps 730 mmHg 97%
    02:00 +15°C° 0 mm 1 mps 730 mmHg 97%
    03:00 +15°C° 0 mm 1 mps 730 mmHg 96%
    04:00 +16°C° 0 mm 1 mps 730 mmHg 93%
    05:00 +17°C° 0 mm 2 mps 731 mmHg 89%
    06:00 +18°C° 0 mm 2 mps 731 mmHg 85%
    07:00 +20°C° 0 mm 2 mps 731 mmHg 76%
    08:00 +23°C° 0 mm 2 mps 731 mmHg 67%
    09:00 +25°C° 0 mm 3 mps 731 mmHg 57%
    10:00 +27°C° 0 mm 3 mps 731 mmHg 54%
    11:00 +28°C° 0 mm 3 mps 731 mmHg 51%
    12:00 +29°C° 0 mm 3 mps 730 mmHg 48%
    13:00 +29°C° 0 mm 3 mps 730 mmHg 48%
    14:00 +29°C° 0 mm 3 mps 730 mmHg 49%
    15:00 +29°C° 0 mm 3 mps 730 mmHg 50%
    16:00 +28°C° 0 mm 3 mps 730 mmHg 57%
    17:00 +27°C° 0 mm 3 mps 730 mmHg 64%
    18:00 +26°C° 0 mm 3 mps 730 mmHg 71%
    19:00 +24°C° 0 mm 2 mps 730 mmHg 79%
    20:00 +21°C° 0 mm 2 mps 730 mmHg 86%
    21:00 +19°C° 0 mm 2 mps 730 mmHg 93%
    22:00 +18°C° 0 mm 2 mps 730 mmHg 94%
    23:00 +18°C° 0 mm 2 mps 730 mmHg 94%

    Tomorrow, 20 June, Wednesday

    Time Temperature Precipitation Wind Pressure Humidity
    00:00 +18°C° 0 mm 1 mps 730 mmHg 94%
    01:00 +18°C° 0 mm 1 mps 730 mmHg 94%
    02:00 +18°C° 0 mm 1 mps 729 mmHg 94%
    03:00 +16°C° 0 mm 1 mps 729 mmHg 94%
    04:00 +19°C° 0 mm 1 mps 729 mmHg 91%
    05:00 +20°C° 0 mm 1 mps 729 mmHg 88%
    06:00 +21°C° 0 mm 1 mps 729 mmHg 85%
    07:00 +23°C° 0 mm 1 mps 730 mmHg 76%
    08:00 +26°C° 0 mm 1 mps 730 mmHg 67%
    09:00 +28°C° 0 mm 1 mps 730 mmHg 59%
    10:00 +29°C° 0 mm 1 mps 730 mmHg 56%
    11:00 +30°C° 0 mm 1 mps 729 mmHg 54%
    12:00 +31°C° 0 mm 1 mps 729 mmHg 52%
    13:00 +31°C° 0.2 mm 1 mps 729 mmHg 53%
    14:00 +30°C° 0.2 mm 1 mps 728 mmHg 55%
    15:00 +30°C° 0.2 mm 1 mps 728 mmHg 57%
    16:00 +29°C° 0.3 mm 1 mps 728 mmHg 65%
    17:00 +28°C° 0.3 mm 1 mps 728 mmHg 72%
    18:00 +27°C° 0.3 mm 1 mps 728 mmHg 79%
    19:00 +25°C° 0.3 mm 1 mps 728 mmHg 84%
    20:00 +23°C° 0.3 mm 1 mps 728 mmHg 88%
    21:00 +19°C° 0.3 mm 0 mps 728 mmHg 92%
    22:00 +21°C° 0 mm 1 mps 728 mmHg 93%
    23:00 +21°C° 0 mm 1 mps 728 mmHg 94%

    Day after tomorrow, 21 June, Thursday

    Time Temperature Precipitation Wind Pressure Humidity
    00:00 +20°C° 0 mm 1 mps 728 mmHg 94%
    01:00 +20°C° 0 mm 1 mps 728 mmHg 95%
    02:00 +20°C° 0 mm 1 mps 728 mmHg 95%
    03:00 +19°C° 0 mm 1 mps 727 mmHg 95%
    04:00 +20°C° 0 mm 1 mps 727 mmHg 93%
    05:00 +19°C° 0 mm 0 mps 727 mmHg 91%
    06:00 +20°C° 0 mm 0 mps 728 mmHg 90%
    07:00 +24°C° 0 mm 1 mps 727 mmHg 83%
    08:00 +25°C° 0 mm 1 mps 727 mmHg 76%
    09:00 +27°C° 0 mm 1 mps 727 mmHg 70%
    10:00 +28°C° 0.1 mm 2 mps 727 mmHg 65%
    11:00 +28°C° 0.1 mm 2 mps 727 mmHg 61%
    12:00 +29°C° 0.1 mm 2 mps 727 mmHg 56%
    13:00 +29°C° 0.1 mm 2 mps 727 mmHg 58%
    14:00 +29°C° 0.1 mm 2 mps 727 mmHg 59%
    15:00 +28°C° 0.1 mm 3 mps 726 mmHg 60%
    16:00 +27°C° 0.2 mm 2 mps 726 mmHg 66%
    17:00 +26°C° 0.2 mm 2 mps 726 mmHg 72%
    18:00 +25°C° 0.2 mm 2 mps 726 mmHg 78%
    19:00 +23°C° 0.1 mm 2 mps 727 mmHg 83%
    20:00 +21°C° 0.1 mm 2 mps 727 mmHg 88%
    21:00 +19°C° 0.1 mm 2 mps 728 mmHg 93%
    22:00 +18°C° 0 mm 2 mps 728 mmHg 94%
    23:00 +18°C° 0 mm 2 mps 727 mmHg 95%

    22 June, Friday

    Time Temperature Precipitation Wind Pressure Humidity
    00:00 +17°C° 0 mm 2 mps 727 mmHg 96%
    01:00 +16°C° 0 mm 2 mps 727 mmHg 95%
    02:00 +16°C° 0 mm 2 mps 727 mmHg 95%
    03:00 +15°C° 0 mm 2 mps 727 mmHg 94%
    04:00 +15°C° 0 mm 2 mps 727 mmHg 92%
    05:00 +16°C° 0 mm 3 mps 728 mmHg 89%
    06:00 +16°C° 0 mm 3 mps 728 mmHg 87%
    07:00 +17°C° 0 mm 3 mps 728 mmHg 80%
    08:00 +18°C° 0 mm 3 mps 728 mmHg 74%
    09:00 +19°C° 0 mm 4 mps 728 mmHg 67%
    10:00 +20°C° 0 mm 4 mps 728 mmHg 61%
    11:00 +21°C° 0 mm 4 mps 728 mmHg 54%
    12:00 +22°C° 0 mm 4 mps 727 mmHg 47%
    13:00 +22°C° 0 mm 4 mps 727 mmHg 46%
    14:00 +22°C° 0 mm 4 mps 727 mmHg 45%
    15:00 +22°C° 0 mm 5 mps 727 mmHg 44%
    16:00 +21°C° 0 mm 5 mps 727 mmHg 49%
    17:00 +20°C° 0 mm 4 mps 727 mmHg 54%
    18:00 +19°C° 0 mm 4 mps 727 mmHg 58%
    19:00 +17°C° 0 mm 4 mps 727 mmHg 64%
    20:00 +14°C° 0 mm 4 mps 728 mmHg 70%
    21:00 +13°C° 0 mm 3 mps 728 mmHg 75%
    22:00 +12°C° 0 mm 3 mps 728 mmHg 76%
    23:00 +11°C° 0 mm 3 mps 728 mmHg 77%

    23 June, Saturday

    Time Temperature Precipitation Wind Pressure Humidity
    00:00 +10°C° 0 mm 3 mps 728 mmHg 78%
    01:00 +10°C° 0 mm 3 mps 728 mmHg 80%
    02:00 +10°C° 0 mm 3 mps 728 mmHg 81%
    03:00 +9°C° 0 mm 2 mps 728 mmHg 82%
    04:00 +11°C° 0 mm 3 mps 728 mmHg 77%
    05:00 +12°C° 0 mm 3 mps 728 mmHg 72%
    06:00 +13°C° 0 mm 3 mps 728 mmHg 67%
    07:00 +16°C° 0 mm 3 mps 728 mmHg 60%
    08:00 +18°C° 0 mm 3 mps 728 mmHg 53%
    09:00 +20°C° 0 mm 4 mps 728 mmHg 46%
    10:00 +21°C° 0 mm 4 mps 728 mmHg 43%
    11:00 +23°C° 0 mm 4 mps 728 mmHg 41%
    12:00 +25°C° 0 mm 4 mps 728 mmHg 39%
    13:00 +25°C° 0 mm 4 mps 728 mmHg 40%
    14:00 +25°C° 0 mm 4 mps 728 mmHg 41%
    15:00 +25°C° 0 mm 4 mps 727 mmHg 41%
    16:00 +23°C° 0 mm 4 mps 727 mmHg 48%
    17:00 +21°C° 0 mm 3 mps 727 mmHg 54%
    18:00 +20°C° 0 mm 3 mps 727 mmHg 60%
    19:00 +18°C° 0 mm 3 mps 727 mmHg 67%
    20:00 +16°C° 0 mm 3 mps 728 mmHg 74%
    21:00 +14°C° 0 mm 2 mps 728 mmHg 81%
    22:00 +13°C° 0 mm 2 mps 728 mmHg 83%
    23:00 +13°C° 0 mm 2 mps 728 mmHg 85%

    24 June, Sunday

    Time Temperature Precipitation Wind Pressure Humidity
    00:00 +12°C° 0 mm 2 mps 728 mmHg 87%
    01:00 +12°C° 0 mm 2 mps 727 mmHg 89%
    02:00 +11°C° 0 mm 1 mps 727 mmHg 90%
    03:00 +11°C° 0 mm 1 mps 727 mmHg 92%
    04:00 +12°C° 0 mm 1 mps 727 mmHg 86%
    05:00 +14°C° 0 mm 1 mps 727 mmHg 80%
    06:00 +15°C° 0 mm 1 mps 728 mmHg 74%
    07:00 +19°C° 0 mm 1 mps 728 mmHg 66%
    08:00 +20°C° 0 mm 2 mps 728 mmHg 57%
    09:00 +23°C° 0 mm 2 mps 728 mmHg 48%
    10:00 +24°C° 0 mm 2 mps 727 mmHg 45%
    11:00 +25°C° 0 mm 2 mps 727 mmHg 41%
    12:00 +26°C° 0 mm 2 mps 727 mmHg 38%
    13:00 +26°C° 0 mm 2 mps 727 mmHg 38%
    14:00 +26°C° 0 mm 2 mps 727 mmHg 39%
    15:00 +26°C° 0 mm 3 mps 726 mmHg 39%
    16:00 +25°C° 0 mm 2 mps 726 mmHg 46%
    17:00 +24°C° 0 mm 2 mps 726 mmHg 54%
    18:00 +21°C° 0 mm 2 mps 726 mmHg 61%
    19:00 +19°C° 0 mm 2 mps 727 mmHg 67%
    20:00 +17°C° 0 mm 2 mps 727 mmHg 72%
    21:00 +15°C° 0 mm 2 mps 727 mmHg 78%
    22:00 +15°C° 0 mm 2 mps 727 mmHg 80%
    23:00 +14°C° 0 mm 2 mps 727 mmHg 81%
    Show more